Weather History for Hillsdale, MI

Change the Weather History Date:

Monday, January 14, 2013

  Actual Average Record
Temperature  
Mean Temperature 22 °F -  
Max Temperature 26 °F 28 °F 57 °F (1950)
Min Temperature 17 °F 13 °F -6 °F (1957)
Degree Days  
Heating Degree Days 43    
Moisture  
Dew Point 17 °F    
Average Humidity 81    
Maximum Humidity 92    
Minimum Humidity 72    
Precipitation  
Precipitation 0.00 in - - ()
Sea Level Pressure  
Sea Level Pressure 30.29 in    
Wind  
Wind Speed 12 mph (WNW)    
Max Wind Speed 20 mph    
Max Gust Speed 28 mph    
Visibility 10 miles    
Events Snow    
Averages and records for this station are not official NWS values.
T = Trace of Precipitation, MM = Missing Value Source: NWS Daily Summary

Daily Weather History Graph

Daily Weather History Graph

Search for Another Location

Airport:

Trip Planner

Search our weather history database for the weather conditions in past years. The results will help you decide how hot, cold, wet, or windy it might be!

Date:

Astronomy

Jan. 14, 2013 Rise Set
Actual Time 8:03 AM EST 5:31 PM EST
Civil Twilight 7:33 AM EST 6:02 PM EST
Nautical Twilight 6:58 AM EST 6:36 PM EST
Astronomical Twilight 6:25 AM EST 7:10 PM EST
Moon 9:33 AM EST (1/14) 9:20 PM EST (1/14)
Length of Visible Light 10h 29m
Length of Day
9h 27m
Waxing Crescent, 11% of the Moon is Illuminated
Jan 14
Waxing Crescent
Jan 18
First Quarter
Jan 26
Full
Feb 3
Last Quarter
Feb 10
New

Hourly Weather History & Observations

Time (EST) Temp. Windchill Dew Point Humidity Pressure Visibility Wind Dir Wind Speed Gust Speed Precip Events Conditions
12:15 AM 27.7 °F 14.8 °F 23.5 °F 84% 30.05 in 10.0 mi West 18.4 mph 27.6 mph N/A   Overcast
12:34 AM 27.0 °F 14.3 °F 23.0 °F 85% 30.06 in 10.0 mi West 17.3 mph 23.0 mph N/A   Overcast
12:55 AM 26.2 °F 13.4 °F 22.5 °F 86% 30.08 in 10.0 mi West 17.3 mph 20.7 mph N/A   Overcast
1:15 AM 25.5 °F 13.8 °F 22.1 °F 87% 30.09 in 10.0 mi West 13.8 mph 24.2 mph N/A   Overcast
1:34 AM 24.6 °F 10.9 °F 20.7 °F 85% 30.10 in 10.0 mi West 18.4 mph 25.3 mph N/A   Overcast
2:15 AM 23.2 °F 8.6 °F 19.8 °F 87% 30.12 in 10.0 mi West 19.6 mph 27.6 mph N/A   Overcast
2:34 AM 23.2 °F 9.4 °F 19.9 °F 87% 30.14 in 10.0 mi West 17.3 mph - N/A   Overcast
2:55 AM 23.2 °F 9.8 °F 19.9 °F 87% 30.16 in 10.0 mi West 16.1 mph 20.7 mph N/A   Overcast
3:15 AM 23.2 °F 11.4 °F 20.1 °F 88% 30.17 in 10.0 mi West 12.7 mph 17.3 mph N/A   Overcast
3:34 AM 22.5 °F 8.5 °F 19.2 °F 87% 30.19 in 10.0 mi West 17.3 mph 24.2 mph N/A   Overcast
3:55 AM 22.5 °F 8.9 °F 19.0 °F 87% 30.19 in 10.0 mi WNW 16.1 mph 23.0 mph N/A   Overcast
4:35 AM 21.7 °F 7.1 °F 18.3 °F 87% 30.19 in 10.0 mi WNW 18.4 mph 26.5 mph N/A   Overcast
5:15 AM 21.9 °F 8.2 °F 18.5 °F 87% 30.22 in 10.0 mi West 16.1 mph 26.5 mph N/A   Overcast
5:35 AM 21.9 °F 8.7 °F 18.7 °F 87% 30.22 in 10.0 mi WNW 15.0 mph 20.7 mph N/A   Overcast
5:54 AM 21.7 °F 7.1 °F 18.7 °F 88% 30.22 in 10.0 mi WNW 18.4 mph 25.3 mph N/A   Overcast
6:14 AM 21.6 °F 7.3 °F 18.1 °F 87% 30.23 in 10.0 mi WNW 17.3 mph 21.9 mph N/A   Overcast
6:35 AM 21.7 °F 8.5 °F 18.3 °F 87% 30.24 in 10.0 mi WNW 15.0 mph 21.9 mph N/A   Overcast
7:14 AM 21.6 °F 8.2 °F 17.8 °F 85% 30.26 in 10.0 mi NW 15.0 mph 23.0 mph N/A   Overcast
7:35 AM 21.6 °F 9.3 °F 18.1 °F 87% 30.28 in 10.0 mi WNW 12.7 mph - N/A   Overcast
7:55 AM 21.4 °F 7.1 °F 17.2 °F 84% 30.29 in 10.0 mi WNW 17.3 mph 24.2 mph N/A   Overcast
8:15 AM 21.4 °F 9.1 °F 17.2 °F 84% 30.30 in 10.0 mi WNW 12.7 mph 19.6 mph N/A   Overcast
8:34 AM 21.4 °F 8.5 °F 17.2 °F 84% 30.30 in 10.0 mi WNW 13.8 mph 23.0 mph N/A   Overcast
8:54 AM 21.6 °F 9.9 °F 17.2 °F 83% 30.31 in 10.0 mi WNW 11.5 mph 18.4 mph N/A   Overcast
9:15 AM 21.4 °F 8.5 °F 17.2 °F 84% 30.32 in 10.0 mi NW 13.8 mph 18.4 mph N/A   Overcast
9:35 AM 21.6 °F 11.3 °F 17.4 °F 84% 30.34 in 10.0 mi NW 9.2 mph 17.3 mph N/A   Overcast
9:55 AM 21.7 °F 10.8 °F 17.6 °F 84% 30.34 in 10.0 mi NW 10.4 mph - N/A Snow Light Snow
10:14 AM 21.9 °F 11.7 °F 16.9 °F 81% 30.34 in 10.0 mi WNW 9.2 mph - N/A Snow Light Snow
10:34 AM 22.5 °F 11.1 °F 15.3 °F 74% 30.34 in 10.0 mi NW 11.5 mph 17.3 mph N/A   Mostly Cloudy
10:54 AM 22.8 °F 11.5 °F 15.8 °F 74% 30.34 in 10.0 mi NNW 11.5 mph - N/A   Overcast
11:15 AM 23.2 °F 15.0 °F 16.7 °F 76% 30.34 in 10.0 mi NW 6.9 mph - N/A   Overcast
11:34 AM 23.2 °F 13.3 °F 16.3 °F 75% 30.33 in 10.0 mi WNW 9.2 mph - N/A   Overcast
11:55 AM 23.2 °F 15.0 °F 17.1 °F 77% 30.31 in 10.0 mi NNW 6.9 mph - N/A   Overcast
12:14 PM 22.8 °F 15.5 °F 16.5 °F 77% 30.31 in 10.0 mi NW 5.8 mph - N/A   Overcast
12:35 PM 23.0 °F 17.0 °F 17.1 °F 78% 30.32 in 10.0 mi NNW 4.6 mph - N/A   Overcast
1:14 PM 23.4 °F 13.5 °F 17.1 °F 77% 30.31 in 10.0 mi WNW 9.2 mph - N/A   Overcast
1:34 PM 23.2 °F 16.0 °F 16.9 °F 77% 30.32 in 10.0 mi North 5.8 mph - N/A   Overcast
1:55 PM 23.5 °F 14.5 °F 16.9 °F 76% 30.32 in 10.0 mi NW 8.1 mph - N/A Snow Light Snow
2:14 PM 23.5 °F 19.1 °F 17.1 °F 76% 30.34 in 10.0 mi NW 3.5 mph - N/A   Overcast
2:34 PM 23.5 °F 15.4 °F 16.5 °F 75% 30.34 in 10.0 mi NW 6.9 mph - N/A   Overcast
2:55 PM 23.5 °F 16.4 °F 16.2 °F 73% 30.34 in 10.0 mi NNW 5.8 mph - N/A Snow Light Snow
3:15 PM 23.5 °F 15.4 °F 16.3 °F 74% 30.35 in 10.0 mi NW 6.9 mph - N/A   Overcast
3:35 PM 23.9 °F 18.0 °F 16.5 °F 73% 30.35 in 10.0 mi NW 4.6 mph - N/A   Overcast
3:54 PM 24.1 °F 17.0 °F 16.3 °F 72% 30.36 in 10.0 mi NNW 5.8 mph - N/A   Overcast
4:15 PM 24.1 °F 18.2 °F 16.5 °F 73% 30.37 in 10.0 mi WNW 4.6 mph - N/A   Overcast
4:35 PM 24.1 °F 19.7 °F 16.9 °F 74% 30.38 in 10.0 mi West 3.5 mph - N/A Snow Light Snow
5:15 PM 24.1 °F 18.2 °F 16.7 °F 73% 30.38 in 10.0 mi West 4.6 mph - N/A   Overcast
5:35 PM 24.1 °F 18.2 °F 16.7 °F 73% 30.38 in 10.0 mi West 4.6 mph - N/A   Overcast
5:54 PM 23.5 °F 17.6 °F 16.2 °F 73% 30.38 in 10.0 mi West 4.6 mph - N/A   Mostly Cloudy
6:15 PM 23.4 °F - 16.3 °F 75% 30.38 in 10.0 mi Calm Calm - N/A   Mostly Cloudy
6:34 PM 23.5 °F 19.1 °F 16.9 °F 76% 30.38 in 10.0 mi West 3.5 mph - N/A   Overcast
6:55 PM 23.4 °F 18.9 °F 16.9 °F 76% 30.38 in 10.0 mi West 3.5 mph - N/A   Overcast
7:15 PM 23.2 °F 18.7 °F 16.9 °F 77% 30.37 in 10.0 mi West 3.5 mph - N/A   Overcast
7:34 PM 23.0 °F 17.0 °F 16.3 °F 76% 30.37 in 10.0 mi WNW 4.6 mph - N/A   Overcast
7:54 PM 22.6 °F 16.5 °F 16.2 °F 76% 30.36 in 10.0 mi West 4.6 mph - N/A   Mostly Cloudy
8:14 PM 21.7 °F - 16.5 °F 80% 30.35 in 10.0 mi Calm Calm - N/A   Scattered Clouds
8:35 PM 20.7 °F - 15.4 °F 80% 30.34 in 10.0 mi Calm Calm - N/A   Clear
8:54 PM 19.6 °F 14.5 °F 15.1 °F 83% 30.34 in 10.0 mi NW 3.5 mph - N/A   Clear
9:15 PM 19.8 °F 14.7 °F 15.1 °F 82% 30.35 in 10.0 mi NW 3.5 mph - N/A   Clear
9:35 PM 19.9 °F - 15.8 °F 84% 30.34 in 10.0 mi Calm Calm - N/A   Clear
9:55 PM 18.9 °F - 16.0 °F 89% 30.34 in 10.0 mi Calm Calm - N/A   Clear
10:14 PM 18.0 °F 12.7 °F 14.9 °F 88% 30.33 in 10.0 mi NNW 3.5 mph - N/A   Clear
10:35 PM 18.1 °F - 15.1 °F 88% 30.34 in 10.0 mi Calm Calm - N/A   Clear
10:55 PM 18.1 °F - 15.4 °F 89% 30.34 in 10.0 mi Calm Calm - N/A   Clear
11:14 PM 17.8 °F - 15.3 °F 90% 30.34 in 10.0 mi Calm Calm - N/A   Clear
11:35 PM 17.4 °F - 15.3 °F 91% 30.34 in 10.0 mi Calm Calm - N/A   Clear
11:54 PM 17.2 °F - 15.3 °F 92% 30.35 in 10.0 mi Calm Calm - N/A   Clear